Showing default

COSMOS 1564, 15003

Orbit data source: Space-Track

COSMOS 1564, 15003 is a payload satellite owned by GUKOS (CIS) in LEO that was launched on Mon, 28 May 1984 UTC via a KOSMOS 11K65M launch vehicle from the Plesetsk Missile And Space Complex (PKMTR). Payload-class satellites include a variety of spacecraft equipped with specific instruments for various scientific and technological missions. These include communications satellites like Starlink; space stations such as the ISS; scientific satellites like the Hubble; Earth observation satellites from companies like Planet Labs, Umbra, and HawkEye 360; GPS; miniature CubeSats for education and research; and military/defense satellites.

Loading next visibility...
Identifier
15003, 1984-052F
Orbit
LEO
Country
Flag of CISCIS
Related business
Manufacturer
NPO PM
Mission
Defense Communications
Bus & Motor
STRELA-1 11F625, Unknown motor
Mass
60 kg wet, 60 kg dry
Launch date (UTC)
1984-05-28 (41 years ago)
Launch vehicle
KOSMOS 11K65M
Launch site
Plesetsk Missile And Space Complex (PKMTR)
Object type
Payload
Rocket body
Debris
Shape & HBR
Sphere, 0.4 m
Radar Cross Section
0.588 m², Medium (>0.1 m² and < 1m²)

Expand to show TLE details & history
Last TLE update: 6 hours ago

TLE from 6 hours ago
0 COSMOS 1564
1 15003U 84052F   25260.94839307 -.00000028  00000-0 -74414-4 0  9992
2 15003  74.0138 182.4408 0032982 357.2668  73.1483 12.53579715890156
Epoch: 2025-09-17T22:45Z
TLE epoch observation values (Epoch: 2025-09-17T22:45:41.161Z)
Latitude
65.28374°
Longitude
-117.83007°
Altitude
1,453.056 km
Speed
7.145 km/s
True Right ascension
14h 42m 50s
True Declination
65° 09' 52"
Sunlit
Object was in daylight at epoch
Visualization orbit readout
Latitude
Unknown
Longitude
Unknown
Altitude
Unknown
Speed
Unknown
Apparent Right ascension
Unknown
Apparent Declination
Unknown
Sunlit
N/A
Visualization observer readout
Local Sidereal Time
22:02:45
Azimuth
Unknown
Elevation
Unknown
Doppler factor
Unknown
Orbital elements
Apogee altitude
1,473.2 km
Perigee altitude
1,421.58 km
Semi-major axis
7,825.527 km
Eccentricity
0.0033
Inclination
74.0138°
RAAN
182.4408°
Arg. of periapsis
357.2668°
True anomaly
73.51045°
Mean anomaly
73.1483°
Eccentric anomaly
73.32933°
Mean motion
3.13525 °/min
Orbital period
114.82 mins
BSTAR
-0.000074414
Loading maneuver chart data...
Computing Atmospheric mass density...
Loading historical data...
Loading historical data...
Loading historical data...
Loading historical data...
Loading historical data...
Loading historical data...
Loading historical data...

Documentation

Showing up to 5 results
|